owner,sensor,date,latitude,longitude,vertical_datum,direction_of_sea_water_velocity,sea_water_speed,upward_sea_water_velocity,qcFlag 
TABS,ioos:station:wmo:42050:1,2017-09-01T00:00:00Z,28.8425,-94.2433,2.0,209.9183954,17.58324487,-99999.0,'11111222,11111222,99999999' 
TABS,ioos:station:wmo:42050:1,2017-09-01T00:30:00Z,28.8425,-94.2433,2.0,236.7657393,14.98015354,-99999.0,'11111222,11111222,99999999' 
TABS,ioos:station:wmo:42050:1,2017-09-01T01:00:00Z,28.8425,-94.2433,2.0,275.7320885,10.81406492,-99999.0,'11111222,11111222,99999999' 
TABS,ioos:station:wmo:42050:1,2017-09-01T01:30:00Z,28.8425,-94.2433,2.0,301.8899256,8.915660379,-99999.0,'11133222,11111222,99999999' 
TABS,ioos:station:wmo:42050:1,2017-09-01T02:00:00Z,28.8425,-94.2433,2.0,326.2124953,11.38246458,-99999.0,'11111222,11111222,99999999' 
TABS,ioos:station:wmo:42050:1,2017-09-01T02:30:00Z,28.8425,-94.2433,2.0,341.0911062,12.99108156,-99999.0,'11111222,11111222,99999999' 
TABS,ioos:station:wmo:42050:1,2017-09-01T03:00:00Z,28.8425,-94.2433,2.0,355.1964469,16.59830413,-99999.0,'11111222,11111222,99999999' 
TABS,ioos:station:wmo:42050:1,2017-09-01T03:30:00Z,28.8425,-94.2433,2.0,356.3493319,18.21697011,-99999.0,'11111222,11111222,99999999' 
TABS,ioos:station:wmo:42050:1,2017-09-01T04:00:00Z,28.8425,-94.2433,2.0,358.8660653,20.71405803,-99999.0,'11111222,11111222,99999999' 
TABS,ioos:station:wmo:42050:1,2017-09-01T04:30:00Z,28.8425,-94.2433,2.0,8.561654026,21.22653292,-99999.0,'11111222,11111222,99999999' 
TABS,ioos:station:wmo:42050:1,2017-09-01T05:00:00Z,28.8425,-94.2433,2.0,18.87511797,23.06000867,-99999.0,'11111222,11111222,99999999' 
TABS,ioos:station:wmo:42050:1,2017-09-01T05:30:00Z,28.8425,-94.2433,2.0,28.19470457,24.84829169,-99999.0,'11111222,11111222,99999999' 
TABS,ioos:station:wmo:42050:1,2017-09-01T06:00:00Z,28.8425,-94.2433,2.0,44.65648488,27.11803275,-99999.0,'11111222,11111222,99999999' 
TABS,ioos:station:wmo:42050:1,2017-09-01T06:30:00Z,28.8425,-94.2433,2.0,67.43106087,31.18847383,-99999.0,'11111222,11111222,99999999' 
TABS,ioos:station:wmo:42050:1,2017-09-01T07:00:00Z,28.8425,-94.2433,2.0,74.60250428,36.34451953,-99999.0,'11111222,11111222,99999999' 
TABS,ioos:station:wmo:42050:1,2017-09-01T07:30:00Z,28.8425,-94.2433,2.0,72.50240773,41.17520249,-99999.0,'11111222,11111222,99999999' 
TABS,ioos:station:wmo:42050:1,2017-09-01T08:00:00Z,28.8425,-94.2433,2.0,69.29736281,41.15765421,-99999.0,'11111222,11111222,99999999' 
TABS,ioos:station:wmo:42050:1,2017-09-01T08:30:00Z,28.8425,-94.2433,2.0,71.52236823,42.40615521,-99999.0,'11111222,11111222,99999999' 
TABS,ioos:station:wmo:42050:1,2017-09-01T09:00:00Z,28.8425,-94.2433,2.0,71.3751818,46.74820745,-99999.0,'11111222,11111222,99999999' 
TABS,ioos:station:wmo:42050:1,2017-09-01T09:30:00Z,28.8425,-94.2433,2.0,76.29483982,53.72981388,-99999.0,'11111222,11111222,99999999' 
TABS,ioos:station:wmo:42050:1,2017-09-01T10:00:00Z,28.8425,-94.2433,2.0,92.6872628,61.42755082,-99999.0,'11111222,11111222,99999999' 
TABS,ioos:station:wmo:42050:1,2017-09-01T10:30:00Z,28.8425,-94.2433,2.0,92.08417532,58.01838071,-99999.0,'11111222,11111222,99999999' 
TABS,ioos:station:wmo:42050:1,2017-09-01T11:00:00Z,28.8425,-94.2433,2.0,101.911957,56.92585089,-99999.0,'11111222,11111222,99999999' 
TABS,ioos:station:wmo:42050:1,2017-09-01T11:30:00Z,28.8425,-94.2433,2.0,104.9203411,50.14050857,-99999.0,'11111222,11111222,99999999' 
TABS,ioos:station:wmo:42050:1,2017-09-01T12:00:00Z,28.8425,-94.2433,2.0,107.6575461,49.88003408,-99999.0,'11111222,11111222,99999999' 
TABS,ioos:station:wmo:42050:1,2017-09-01T12:30:00Z,28.8425,-94.2433,2.0,109.8160147,48.93781462,-99999.0,'11111222,11111222,99999999' 
TABS,ioos:station:wmo:42050:1,2017-09-01T13:00:00Z,28.8425,-94.2433,2.0,115.544837,47.72525537,-99999.0,'11111222,11111222,99999999' 
TABS,ioos:station:wmo:42050:1,2017-09-01T13:30:00Z,28.8425,-94.2433,2.0,124.2578068,51.21521063,-99999.0,'11111222,11111222,99999999' 
TABS,ioos:station:wmo:42050:1,2017-09-01T14:00:00Z,28.8425,-94.2433,2.0,136.575032,52.73473713,-99999.0,'11111222,11111222,99999999' 
TABS,ioos:station:wmo:42050:1,2017-09-01T14:30:00Z,28.8425,-94.2433,2.0,133.8414544,47.91627803,-99999.0,'11111222,11111222,99999999' 
TABS,ioos:station:wmo:42050:1,2017-09-01T15:00:00Z,28.8425,-94.2433,2.0,143.3769966,44.07040957,-99999.0,'11111222,11111222,99999999' 
TABS,ioos:station:wmo:42050:1,2017-09-01T15:30:00Z,28.8425,-94.2433,2.0,147.72861,40.66089645,-99999.0,'11111222,11111222,99999999' 
TABS,ioos:station:wmo:42050:1,2017-09-01T16:00:00Z,28.8425,-94.2433,2.0,154.2471113,37.53840966,-99999.0,'11111222,11111222,99999999' 
TABS,ioos:station:wmo:42050:1,2017-09-01T16:30:00Z,28.8425,-94.2433,2.0,164.2801539,39.05053777,-99999.0,'11111222,11111222,99999999' 
TABS,ioos:station:wmo:42050:1,2017-09-01T17:00:00Z,28.8425,-94.2433,2.0,171.7805995,46.37636144,-99999.0,'11111222,11111222,99999999' 
TABS,ioos:station:wmo:42050:1,2017-09-01T17:30:00Z,28.8425,-94.2433,2.0,179.3609208,47.53295488,-99999.0,'11111222,11111222,99999999' 
TABS,ioos:station:wmo:42050:1,2017-09-01T18:00:00Z,28.8425,-94.2433,2.0,187.737843,48.57230178,-99999.0,'11111222,11111222,99999999' 
TABS,ioos:station:wmo:42050:1,2017-09-01T18:30:00Z,28.8425,-94.2433,2.0,195.6527322,51.40648694,-99999.0,'11111222,11111222,99999999' 
TABS,ioos:station:wmo:42050:1,2017-09-01T19:00:00Z,28.8425,-94.2433,2.0,200.1516649,56.25371543,-99999.0,'11111222,11111222,99999999' 
TABS,ioos:station:wmo:42050:1,2017-09-01T19:30:00Z,28.8425,-94.2433,2.0,261.0490658,57.97597175,-99999.0,'11111222,11111222,99999999' 
TABS,ioos:station:wmo:42050:1,2017-09-01T20:00:00Z,28.8425,-94.2433,2.0,262.5708837,54.99157208,-99999.0,'11111222,11111222,99999999' 
TABS,ioos:station:wmo:42050:1,2017-09-01T20:30:00Z,28.8425,-94.2433,2.0,265.9831472,53.11043965,-99999.0,'11111222,11111222,99999999' 
TABS,ioos:station:wmo:42050:1,2017-09-01T21:00:00Z,28.8425,-94.2433,2.0,269.8669033,56.14015052,-99999.0,'11111222,11111222,99999999' 
TABS,ioos:station:wmo:42050:1,2017-09-01T21:30:00Z,28.8425,-94.2433,2.0,272.6570819,56.74098431,-99999.0,'11111222,11111222,99999999' 
TABS,ioos:station:wmo:42050:1,2017-09-01T22:00:00Z,28.8425,-94.2433,2.0,278.2215522,55.17702602,-99999.0,'11111222,11111222,99999999' 
TABS,ioos:station:wmo:42050:1,2017-09-01T22:30:00Z,28.8425,-94.2433,2.0,275.3819554,54.05827689,-99999.0,'11111222,11111222,99999999' 
TABS,ioos:station:wmo:42050:1,2017-09-01T23:00:00Z,28.8425,-94.2433,2.0,281.5996141,55.15640489,-99999.0,'11111222,11111222,99999999' 
TABS,ioos:station:wmo:42050:1,2017-09-01T23:30:00Z,28.8425,-94.2433,2.0,279.5735926,52.67353415,-99999.0,'11111222,11111222,99999999' 
TABS,ioos:station:wmo:42050:1,2017-09-02T00:00:00Z,28.8425,-94.2433,2.0,279.2997011,54.89140006,-99999.0,'11111222,11111222,99999999' 
TABS,ioos:station:wmo:42050:1,2017-09-02T00:30:00Z,28.8425,-94.2433,2.0,283.6057112,54.49929633,-99999.0,'11111222,11111222,99999999' 
TABS,ioos:station:wmo:42050:1,2017-09-02T01:00:00Z,28.8425,-94.2433,2.0,282.2260702,50.43378332,-99999.0,'11111222,11111222,99999999' 
TABS,ioos:station:wmo:42050:1,2017-09-02T01:30:00Z,28.8425,-94.2433,2.0,279.966989,46.5119189,-99999.0,'11111222,11111222,99999999' 
TABS,ioos:station:wmo:42050:1,2017-09-02T02:00:00Z,28.8425,-94.2433,2.0,287.5457626,46.44048234,-99999.0,'11111222,11111222,99999999' 
TABS,ioos:station:wmo:42050:1,2017-09-02T02:30:00Z,28.8425,-94.2433,2.0,287.8703953,44.58079519,-99999.0,'11111222,11111222,99999999' 
TABS,ioos:station:wmo:42050:1,2017-09-02T03:00:00Z,28.8425,-94.2433,2.0,291.6696391,41.86883925,-99999.0,'11111222,11111222,99999999' 
TABS,ioos:station:wmo:42050:1,2017-09-02T03:30:00Z,28.8425,-94.2433,2.0,293.7186495,37.63922422,-99999.0,'11111222,11111222,99999999' 
TABS,ioos:station:wmo:42050:1,2017-09-02T04:00:00Z,28.8425,-94.2433,2.0,299.5676755,32.01972049,-99999.0,'11111222,11111222,99999999' 
TABS,ioos:station:wmo:42050:1,2017-09-02T04:30:00Z,28.8425,-94.2433,2.0,306.681866,28.59215452,-99999.0,'11111222,11111222,99999999' 
TABS,ioos:station:wmo:42050:1,2017-09-02T05:00:00Z,28.8425,-94.2433,2.0,303.9334438,26.15434954,-99999.0,'11111222,11111222,99999999' 
TABS,ioos:station:wmo:42050:1,2017-09-02T05:30:00Z,28.8425,-94.2433,2.0,312.5524533,16.88697723,-99999.0,'11111222,11111222,99999999' 
TABS,ioos:station:wmo:42050:1,2017-09-02T06:00:00Z,28.8425,-94.2433,2.0,340.9496475,9.711915362,-99999.0,'11133222,11111222,99999999' 
TABS,ioos:station:wmo:42050:1,2017-09-02T06:30:00Z,28.8425,-94.2433,2.0,349.7405739,5.670670154,-99999.0,'11133222,11111222,99999999' 
TABS,ioos:station:wmo:42050:1,2017-09-02T07:00:00Z,28.8425,-94.2433,2.0,293.1250909,3.055503232,-99999.0,'11133222,11111222,99999999' 
TABS,ioos:station:wmo:42050:1,2017-09-02T07:30:00Z,28.8425,-94.2433,2.0,244.200401,5.35362494,-99999.0,'11133222,11111222,99999999' 
TABS,ioos:station:wmo:42050:1,2017-09-02T08:00:00Z,28.8425,-94.2433,2.0,225.8220534,11.8240433,-99999.0,'11111222,11111222,99999999' 
TABS,ioos:station:wmo:42050:1,2017-09-02T08:30:00Z,28.8425,-94.2433,2.0,221.2066289,15.39207588,-99999.0,'11111222,11111222,99999999' 
TABS,ioos:station:wmo:42050:1,2017-09-02T09:00:00Z,28.8425,-94.2433,2.0,227.8529529,22.15991426,-99999.0,'11111222,11111222,99999999' 
TABS,ioos:station:wmo:42050:1,2017-09-02T09:30:00Z,28.8425,-94.2433,2.0,229.0242338,24.58308361,-99999.0,'11111222,11111222,99999999' 
TABS,ioos:station:wmo:42050:1,2017-09-02T10:00:00Z,28.8425,-94.2433,2.0,225.7177123,27.08431649,-99999.0,'11111222,11111222,99999999' 
TABS,ioos:station:wmo:42050:1,2017-09-02T10:30:00Z,28.8425,-94.2433,2.0,234.3644115,32.76560697,-99999.0,'11111222,11111222,99999999' 
TABS,ioos:station:wmo:42050:1,2017-09-02T11:00:00Z,28.8425,-94.2433,2.0,238.5372716,28.968923,-99999.0,'11111222,11111222,99999999' 
TABS,ioos:station:wmo:42050:1,2017-09-02T11:30:00Z,28.8425,-94.2433,2.0,248.5716566,32.7647814,-99999.0,'11111222,11111222,99999999' 
TABS,ioos:station:wmo:42050:1,2017-09-02T12:00:00Z,28.8425,-94.2433,2.0,249.3221502,36.44786551,-99999.0,'11111222,11111222,99999999' 
TABS,ioos:station:wmo:42050:1,2017-09-02T12:30:00Z,28.8425,-94.2433,2.0,250.7237702,36.19932872,-99999.0,'11111222,11111222,99999999' 
TABS,ioos:station:wmo:42050:1,2017-09-02T13:00:00Z,28.8425,-94.2433,2.0,247.8031049,35.8140545,-99999.0,'11111222,11111222,99999999' 
TABS,ioos:station:wmo:42050:1,2017-09-02T13:30:00Z,28.8425,-94.2433,2.0,250.4927597,35.66724688,-99999.0,'11111222,11111222,99999999' 
TABS,ioos:station:wmo:42050:1,2017-09-02T14:00:00Z,28.8425,-94.2433,2.0,250.3578337,38.4365243,-99999.0,'11111222,11111222,99999999' 
TABS,ioos:station:wmo:42050:1,2017-09-02T14:30:00Z,28.8425,-94.2433,2.0,254.8793565,39.87029094,-99999.0,'11111222,11111222,99999999' 
TABS,ioos:station:wmo:42050:1,2017-09-02T15:00:00Z,28.8425,-94.2433,2.0,255.8299035,42.68881118,-99999.0,'11111222,11111222,99999999' 
TABS,ioos:station:wmo:42050:1,2017-09-02T15:30:00Z,28.8425,-94.2433,2.0,256.8000875,44.01278223,-99999.0,'11111222,11111222,99999999' 
TABS,ioos:station:wmo:42050:1,2017-09-02T16:00:00Z,28.8425,-94.2433,2.0,257.1666148,45.96821184,-99999.0,'11111222,11111222,99999999' 
TABS,ioos:station:wmo:42050:1,2017-09-02T16:30:00Z,28.8425,-94.2433,2.0,258.8931964,46.92892605,-99999.0,'11111222,11111222,99999999' 
TABS,ioos:station:wmo:42050:1,2017-09-02T17:00:00Z,28.8425,-94.2433,2.0,257.118242,45.12564349,-99999.0,'11111222,11111222,99999999' 
TABS,ioos:station:wmo:42050:1,2017-09-02T17:30:00Z,28.8425,-94.2433,2.0,256.0254072,49.27841718,-99999.0,'11111222,11111222,99999999' 
TABS,ioos:station:wmo:42050:1,2017-09-02T18:00:00Z,28.8425,-94.2433,2.0,260.2211315,49.45854426,-99999.0,'11111222,11111222,99999999' 
TABS,ioos:station:wmo:42050:1,2017-09-02T18:30:00Z,28.8425,-94.2433,2.0,259.9814485,52.19584658,-99999.0,'11111222,11111222,99999999' 
TABS,ioos:station:wmo:42050:1,2017-09-02T19:00:00Z,28.8425,-94.2433,2.0,261.209858,50.97870634,-99999.0,'11111222,11111222,99999999' 
TABS,ioos:station:wmo:42050:1,2017-09-02T19:30:00Z,28.8425,-94.2433,2.0,258.9125768,49.4020283,-99999.0,'11111222,11111222,99999999' 
TABS,ioos:station:wmo:42050:1,2017-09-02T20:00:00Z,28.8425,-94.2433,2.0,261.4140183,49.10021792,-99999.0,'11111222,11111222,99999999' 
TABS,ioos:station:wmo:42050:1,2017-09-02T20:30:00Z,28.8425,-94.2433,2.0,260.057542,50.85367735,-99999.0,'11111222,11111222,99999999' 
TABS,ioos:station:wmo:42050:1,2017-09-02T21:00:00Z,28.8425,-94.2433,2.0,258.9098672,52.56147353,-99999.0,'11111222,11111222,99999999' 
TABS,ioos:station:wmo:42050:1,2017-09-02T21:30:00Z,28.8425,-94.2433,2.0,258.7967916,52.44939084,-99999.0,'11111222,11111222,99999999' 
TABS,ioos:station:wmo:42050:1,2017-09-02T22:00:00Z,28.8425,-94.2433,2.0,259.2677626,53.64833828,-99999.0,'11111222,11111222,99999999' 
TABS,ioos:station:wmo:42050:1,2017-09-02T22:30:00Z,28.8425,-94.2433,2.0,263.4010373,55.34663495,-99999.0,'11111222,11111222,99999999' 
TABS,ioos:station:wmo:42050:1,2017-09-02T23:00:00Z,28.8425,-94.2433,2.0,266.0716386,54.88893513,-99999.0,'11111222,11111222,99999999' 
TABS,ioos:station:wmo:42050:1,2017-09-02T23:30:00Z,28.8425,-94.2433,2.0,266.7769003,52.65326676,-99999.0,'11111222,11111222,99999999' 
TABS,ioos:station:wmo:42050:1,2017-09-03T00:00:00Z,28.8425,-94.2433,2.0,268.7563696,52.08225994,-99999.0,'11111222,11111222,99999999' 
TABS,ioos:station:wmo:42050:1,2017-09-03T00:30:00Z,28.8425,-94.2433,2.0,272.9599124,48.03406395,-99999.0,'11111222,11111222,99999999' 
TABS,ioos:station:wmo:42050:1,2017-09-03T01:00:00Z,28.8425,-94.2433,2.0,274.5612221,48.79450789,-99999.0,'11111222,11111222,99999999' 
TABS,ioos:station:wmo:42050:1,2017-09-03T01:30:00Z,28.8425,-94.2433,2.0,274.7539669,47.18229011,-99999.0,'11111222,11111222,99999999' 
TABS,ioos:station:wmo:42050:1,2017-09-03T02:00:00Z,28.8425,-94.2433,2.0,280.4415699,48.11674137,-99999.0,'11111222,11111222,99999999' 
TABS,ioos:station:wmo:42050:1,2017-09-03T02:30:00Z,28.8425,-94.2433,2.0,284.1077886,48.82245897,-99999.0,'11111222,11111222,99999999' 
TABS,ioos:station:wmo:42050:1,2017-09-03T03:00:00Z,28.8425,-94.2433,2.0,285.6117074,48.53031218,-99999.0,'11111222,11111222,99999999' 
TABS,ioos:station:wmo:42050:1,2017-09-03T03:30:00Z,28.8425,-94.2433,2.0,291.5554756,46.65267088,-99999.0,'11111222,11111222,99999999' 
TABS,ioos:station:wmo:42050:1,2017-09-03T04:00:00Z,28.8425,-94.2433,2.0,294.8620596,44.38320065,-99999.0,'11111222,11111222,99999999' 
TABS,ioos:station:wmo:42050:1,2017-09-03T04:30:00Z,28.8425,-94.2433,2.0,297.1940518,38.31509494,-99999.0,'11111222,11111222,99999999' 
TABS,ioos:station:wmo:42050:1,2017-09-03T05:00:00Z,28.8425,-94.2433,2.0,290.1545081,37.20829612,-99999.0,'11111222,11111222,99999999' 
TABS,ioos:station:wmo:42050:1,2017-09-03T05:30:00Z,28.8425,-94.2433,2.0,291.1140223,35.11751842,-99999.0,'11111222,11111222,99999999' 
TABS,ioos:station:wmo:42050:1,2017-09-03T06:00:00Z,28.8425,-94.2433,2.0,293.5931282,32.25618855,-99999.0,'11111222,11111222,99999999' 
TABS,ioos:station:wmo:42050:1,2017-09-03T06:30:00Z,28.8425,-94.2433,2.0,296.6105958,28.35335077,-99999.0,'11111222,11111222,99999999' 
TABS,ioos:station:wmo:42050:1,2017-09-03T07:00:00Z,28.8425,-94.2433,2.0,289.1557598,24.89858028,-99999.0,'11111222,11111222,99999999' 
TABS,ioos:station:wmo:42050:1,2017-09-03T07:30:00Z,28.8425,-94.2433,2.0,286.5951357,23.63440289,-99999.0,'11111222,11111222,99999999' 
TABS,ioos:station:wmo:42050:1,2017-09-03T08:00:00Z,28.8425,-94.2433,2.0,290.1101607,21.63922365,-99999.0,'11111222,11111222,99999999' 
TABS,ioos:station:wmo:42050:1,2017-09-03T08:30:00Z,28.8425,-94.2433,2.0,285.7016473,28.04653455,-99999.0,'11111222,11111222,99999999' 
TABS,ioos:station:wmo:42050:1,2017-09-03T09:00:00Z,28.8425,-94.2433,2.0,285.0272043,25.53311575,-99999.0,'11111222,11111222,99999999' 
TABS,ioos:station:wmo:42050:1,2017-09-03T09:30:00Z,28.8425,-94.2433,2.0,282.7629372,23.1314872,-99999.0,'11111222,11111222,99999999' 
TABS,ioos:station:wmo:42050:1,2017-09-03T10:00:00Z,28.8425,-94.2433,2.0,284.5398005,20.71334111,-99999.0,'11111222,11111222,99999999' 
TABS,ioos:station:wmo:42050:1,2017-09-03T10:30:00Z,28.8425,-94.2433,2.0,275.1060623,20.45114422,-99999.0,'11111222,11111222,99999999' 
TABS,ioos:station:wmo:42050:1,2017-09-03T11:00:00Z,28.8425,-94.2433,2.0,277.3564502,19.99456176,-99999.0,'11111222,11111222,99999999' 
TABS,ioos:station:wmo:42050:1,2017-09-03T11:30:00Z,28.8425,-94.2433,2.0,277.0422871,21.37120727,-99999.0,'11111222,11111222,99999999' 
TABS,ioos:station:wmo:42050:1,2017-09-03T12:00:00Z,28.8425,-94.2433,2.0,271.132463,16.70326016,-99999.0,'11111222,11111222,99999999' 
TABS,ioos:station:wmo:42050:1,2017-09-03T12:30:00Z,28.8425,-94.2433,2.0,272.6909062,15.97761246,-99999.0,'11111222,11111222,99999999' 
TABS,ioos:station:wmo:42050:1,2017-09-03T13:00:00Z,28.8425,-94.2433,2.0,272.0392108,18.55174385,-99999.0,'11111222,11111222,99999999' 
TABS,ioos:station:wmo:42050:1,2017-09-03T13:30:00Z,28.8425,-94.2433,2.0,271.3318231,16.35441531,-99999.0,'11111222,11111222,99999999' 
TABS,ioos:station:wmo:42050:1,2017-09-03T14:00:00Z,28.8425,-94.2433,2.0,258.2265009,19.40828689,-99999.0,'11111222,11111222,99999999' 
TABS,ioos:station:wmo:42050:1,2017-09-03T14:30:00Z,28.8425,-94.2433,2.0,247.1923901,19.99318384,-99999.0,'11111222,11111222,99999999' 
TABS,ioos:station:wmo:42050:1,2017-09-03T15:00:00Z,28.8425,-94.2433,2.0,240.9161256,21.16917807,-99999.0,'11111222,11111222,99999999' 
TABS,ioos:station:wmo:42050:1,2017-09-03T15:30:00Z,28.8425,-94.2433,2.0,256.3620271,22.30896681,-99999.0,'11111222,11111222,99999999' 
TABS,ioos:station:wmo:42050:1,2017-09-03T16:00:00Z,28.8425,-94.2433,2.0,246.6700816,22.97868578,-99999.0,'11111222,11111222,99999999' 
TABS,ioos:station:wmo:42050:1,2017-09-03T16:30:00Z,28.8425,-94.2433,2.0,248.0645229,26.26110622,-99999.0,'11111222,11111222,99999999' 
TABS,ioos:station:wmo:42050:1,2017-09-03T17:00:00Z,28.8425,-94.2433,2.0,250.4729647,27.88370133,-99999.0,'11111222,11111222,99999999' 
TABS,ioos:station:wmo:42050:1,2017-09-03T17:30:00Z,28.8425,-94.2433,2.0,243.8482698,30.97034872,-99999.0,'11111222,11111222,99999999' 
TABS,ioos:station:wmo:42050:1,2017-09-03T18:00:00Z,28.8425,-94.2433,2.0,246.4109965,32.21152744,-99999.0,'11111222,11111222,99999999' 
TABS,ioos:station:wmo:42050:1,2017-09-03T18:30:00Z,28.8425,-94.2433,2.0,256.4580423,37.92428378,-99999.0,'11111222,11111222,99999999' 
TABS,ioos:station:wmo:42050:1,2017-09-03T19:00:00Z,28.8425,-94.2433,2.0,254.9380617,33.74938518,-99999.0,'11111222,11111222,99999999' 
TABS,ioos:station:wmo:42050:1,2017-09-03T19:30:00Z,28.8425,-94.2433,2.0,258.5106247,38.9096312,-99999.0,'11111222,11111222,99999999' 
TABS,ioos:station:wmo:42050:1,2017-09-03T20:00:00Z,28.8425,-94.2433,2.0,259.5992136,43.98262384,-99999.0,'11111222,11111222,99999999' 
TABS,ioos:station:wmo:42050:1,2017-09-03T20:30:00Z,28.8425,-94.2433,2.0,258.9267705,46.44462079,-99999.0,'11111222,11111222,99999999' 
TABS,ioos:station:wmo:42050:1,2017-09-03T21:00:00Z,28.8425,-94.2433,2.0,259.5240701,51.04071414,-99999.0,'11111222,11111222,99999999' 
TABS,ioos:station:wmo:42050:1,2017-09-03T21:30:00Z,28.8425,-94.2433,2.0,259.5224131,49.65792787,-99999.0,'11111222,11111222,99999999' 
TABS,ioos:station:wmo:42050:1,2017-09-03T22:00:00Z,28.8425,-94.2433,2.0,257.2900842,52.27073847,-99999.0,'11111222,11111222,99999999' 
TABS,ioos:station:wmo:42050:1,2017-09-03T22:30:00Z,28.8425,-94.2433,2.0,260.8195712,55.72371309,-99999.0,'11111222,11111222,99999999' 
TABS,ioos:station:wmo:42050:1,2017-09-03T23:00:00Z,28.8425,-94.2433,2.0,260.8706817,56.22211753,-99999.0,'11111222,11111222,99999999' 
TABS,ioos:station:wmo:42050:1,2017-09-03T23:30:00Z,28.8425,-94.2433,2.0,262.3732181,57.2665487,-99999.0,'11111222,11111222,99999999' 
TABS,ioos:station:wmo:42050:1,2017-09-04T00:00:00Z,28.8425,-94.2433,2.0,266.6668494,54.87280292,-99999.0,'11111222,11111222,99999999' 
TABS,ioos:station:wmo:42050:1,2017-09-04T00:30:00Z,28.8425,-94.2433,2.0,270.9487949,53.16728317,-99999.0,'11111222,11111222,99999999' 
TABS,ioos:station:wmo:42050:1,2017-09-04T01:00:00Z,28.8425,-94.2433,2.0,274.0990316,50.22845906,-99999.0,'11111222,11111222,99999999' 
TABS,ioos:station:wmo:42050:1,2017-09-04T01:30:00Z,28.8425,-94.2433,2.0,275.1262599,46.89755004,-99999.0,'11111222,11111222,99999999' 
TABS,ioos:station:wmo:42050:1,2017-09-04T02:00:00Z,28.8425,-94.2433,2.0,280.8151176,44.92796234,-99999.0,'11111222,11111222,99999999' 
TABS,ioos:station:wmo:42050:1,2017-09-04T02:30:00Z,28.8425,-94.2433,2.0,286.8436822,49.52456461,-99999.0,'11111222,11111222,99999999' 
TABS,ioos:station:wmo:42050:1,2017-09-04T03:00:00Z,28.8425,-94.2433,2.0,288.7742261,51.85909853,-99999.0,'11111222,11111222,99999999' 
TABS,ioos:station:wmo:42050:1,2017-09-04T03:30:00Z,28.8425,-94.2433,2.0,292.4337282,52.6979715,-99999.0,'11111222,11111222,99999999' 
TABS,ioos:station:wmo:42050:1,2017-09-04T04:00:00Z,28.8425,-94.2433,2.0,296.9991952,51.39078711,-99999.0,'11111222,11111222,99999999' 
TABS,ioos:station:wmo:42050:1,2017-09-04T04:30:00Z,28.8425,-94.2433,2.0,298.3133499,50.72868222,-99999.0,'11111222,11111222,99999999' 
TABS,ioos:station:wmo:42050:1,2017-09-04T05:00:00Z,28.8425,-94.2433,2.0,298.8502687,48.12266514,-99999.0,'11111222,11111222,99999999' 
TABS,ioos:station:wmo:42050:1,2017-09-04T05:30:00Z,28.8425,-94.2433,2.0,300.9990814,44.94978754,-99999.0,'11111222,11111222,99999999' 
TABS,ioos:station:wmo:42050:1,2017-09-04T06:00:00Z,28.8425,-94.2433,2.0,311.7418039,40.5545016,-99999.0,'11111222,11111222,99999999' 
TABS,ioos:station:wmo:42050:1,2017-09-04T06:30:00Z,28.8425,-94.2433,2.0,310.2564428,40.86935527,-99999.0,'11111222,11111222,99999999' 
TABS,ioos:station:wmo:42050:1,2017-09-04T07:00:00Z,28.8425,-94.2433,2.0,313.3964567,38.9061152,-99999.0,'11111222,11111222,99999999' 
TABS,ioos:station:wmo:42050:1,2017-09-04T07:30:00Z,28.8425,-94.2433,2.0,310.9785236,33.4720092,-99999.0,'11111222,11111222,99999999' 
TABS,ioos:station:wmo:42050:1,2017-09-04T08:00:00Z,28.8425,-94.2433,2.0,312.0951149,31.66958951,-99999.0,'11111222,11111222,99999999' 
TABS,ioos:station:wmo:42050:1,2017-09-04T08:30:00Z,28.8425,-94.2433,2.0,312.3885387,27.93144823,-99999.0,'11111222,11111222,99999999' 
TABS,ioos:station:wmo:42050:1,2017-09-04T09:00:00Z,28.8425,-94.2433,2.0,309.1313038,26.20840514,-99999.0,'11111222,11111222,99999999' 
TABS,ioos:station:wmo:42050:1,2017-09-04T09:30:00Z,28.8425,-94.2433,2.0,310.524831,23.46972731,-99999.0,'11111222,11111222,99999999' 
TABS,ioos:station:wmo:42050:1,2017-09-04T10:00:00Z,28.8425,-94.2433,2.0,309.7923491,21.65615848,-99999.0,'11111222,11111222,99999999' 
TABS,ioos:station:wmo:42050:1,2017-09-04T10:30:00Z,28.8425,-94.2433,2.0,305.1927429,19.6764326,-99999.0,'11111222,11111222,99999999' 
TABS,ioos:station:wmo:42050:1,2017-09-04T11:00:00Z,28.8425,-94.2433,2.0,293.5995503,15.21222206,-99999.0,'11111222,11111222,99999999' 
TABS,ioos:station:wmo:42050:1,2017-09-04T11:30:00Z,28.8425,-94.2433,2.0,297.5085391,13.85655441,-99999.0,'11111222,11111222,99999999' 
TABS,ioos:station:wmo:42050:1,2017-09-04T12:00:00Z,28.8425,-94.2433,2.0,302.4340736,12.90265477,-99999.0,'11111222,11111222,99999999' 
TABS,ioos:station:wmo:42050:1,2017-09-04T12:30:00Z,28.8425,-94.2433,2.0,281.448935,8.917426759,-99999.0,'11133222,11111222,99999999' 
TABS,ioos:station:wmo:42050:1,2017-09-04T13:00:00Z,28.8425,-94.2433,2.0,262.8256625,10.1696116,-99999.0,'11111222,11111222,99999999' 
TABS,ioos:station:wmo:42050:1,2017-09-04T13:30:00Z,28.8425,-94.2433,2.0,275.9836014,10.45696419,-99999.0,'11111222,11111222,99999999' 
TABS,ioos:station:wmo:42050:1,2017-09-04T14:00:00Z,28.8425,-94.2433,2.0,251.1570893,12.44703981,-99999.0,'11111222,11111222,99999999' 
TABS,ioos:station:wmo:42050:1,2017-09-04T14:30:00Z,28.8425,-94.2433,2.0,234.1782929,12.67812289,-99999.0,'11111222,11111222,99999999' 
TABS,ioos:station:wmo:42050:1,2017-09-04T15:00:00Z,28.8425,-94.2433,2.0,232.7985826,17.30028901,-99999.0,'11111222,11111222,99999999' 
TABS,ioos:station:wmo:42050:1,2017-09-04T15:30:00Z,28.8425,-94.2433,2.0,235.2519769,15.17640933,-99999.0,'11111222,11111222,99999999' 
TABS,ioos:station:wmo:42050:1,2017-09-04T16:00:00Z,28.8425,-94.2433,2.0,240.8000901,14.2051012,-99999.0,'11111222,11111222,99999999' 